CW8164 Weather Reports


Display with metric or nautical units.
time (UTC)temp
F
wind
direction
speed
MPH
gust
MPH
rain 1hr
in
rain 24hr
in
rain mn
in
humidity
%
barometer
mb
20260901235903 69 282 0.0 3.0 0.00 0.00 0.00 63 1010.6
20260901235403 69 253 1.0 7.0 0.00 0.00 0.00 63 1010.6
20260901234903 69 271 0.0 7.0 0.00 0.00 0.00 62 1010.6
20260901234404 69 189 1.0 7.0 0.00 0.00 0.00 62 1010.7
20260901233903 69 119 0.0 3.0 0.00 0.00 0.00 63 1010.8
20260901233403 69 198 0.0 3.0 0.00 0.00 0.00 63 1010.8
20260901232904 69 210 0.0 2.0 0.00 0.00 0.00 64 1010.8
20260901232403 69 296 1.0 2.0 0.00 0.00 0.00 63 1010.9
20260901231903 69 186 0.0 2.0 0.00 0.00 0.00 63 1010.9
20260901231403 69 257 1.0 2.0 0.00 0.00 0.00 63 1011.0
20260901230403 69 195 1.0 3.0 0.00 0.00 0.00 63 1011.0
20260901225904 69 295 1.0 6.0 0.00 0.00 0.00 63 1011.0
20260901225403 69 249 1.0 6.0 0.00 0.00 0.00 63 1011.0
20260901224903 69 201 1.0 6.0 0.00 0.00 0.00 64 1011.0
20260901224404 68 287 1.0 2.0 0.00 0.00 0.00 64 1011.1
20260901223903 68 29 0.0 3.0 0.00 0.00 0.00 64 1011.0
20260901223403 68 199 0.0 3.0 0.00 0.00 0.00 64 1011.1
20260901222903 68 158 1.0 6.0 0.00 0.00 0.00 64 1011.0
20260901222403 68 10 0.0 6.0 0.00 0.00 0.00 65 1011.1
20260901221403 68 78 1.0 3.0 0.00 0.00 0.00 65 1011.0
20260901220904 68 193 0.0 3.0 0.00 0.00 0.00 68 1011.1
20260901220404 67 181 2.0 3.0 0.00 0.00 0.00 66 1011.1
20260901215903 67 231 0.0 2.0 0.00 0.00 0.00 68 1011.1
20260901215403 67 189 0.0 2.0 0.00 0.00 0.00 69 1011.1
20260901214404 66 215 0.0 3.0 0.00 0.00 0.00 69 1011.1
20260901213903 66 212 1.0 3.0 0.00 0.00 0.00 69 1011.2
20260901212903 66 136 0.0 0.0 0.00 0.00 0.00 70 1011.2
20260901212404 66 115 0.0 0.0 0.00 0.00 0.00 69 1011.2
20260901211403 65 151 0.0 0.0 0.00 0.00 0.00 72 1011.3
20260901210903 65 147 0.0 0.0 0.00 0.00 0.00 74 1011.3
20260901210404 65 140 0.0 0.0 0.00 0.00 0.00 73 1011.3
20260901205904 65 84 0.0 0.0 0.00 0.00 0.00 72 1011.3
20260901204903 66 99 0.0 0.0 0.00 0.00 0.00 70 1011.3
20260901204403 66 218 0.0 0.0 0.00 0.00 0.00 72 1011.3
20260901203904 66 62 0.0 2.0 0.00 0.00 0.00 72 1011.3
20260901203404 66 103 0.0 3.0 0.00 0.00 0.00 70 1011.3
20260901202903 66 89 1.0 5.0 0.00 0.00 0.00 71 1011.3
20260901202403 65 10 1.0 5.0 0.00 0.00 0.00 73 1011.3
20260901201903 65 52 0.0 3.0 0.00 0.00 0.00 74 1011.4
20260901201403 65 87 1.0 3.0 0.00 0.00 0.00 74 1011.4
20260901195903 65 124 3.0 5.0 0.00 0.00 0.00 74 1011.4
20260901195403 64 66 1.0 2.0 0.00 0.00 0.00 75 1011.6
20260901194903 64 267 1.0 3.0 0.00 0.00 0.00 75 1011.6
20260901193903 64 86 3.0 6.0 0.00 0.00 0.00 78 1011.7
20260901193404 64 31 2.0 3.0 0.00 0.00 0.00 78 1011.8
20260901192403 65 122 1.0 2.0 0.00 0.00 0.00 75 1011.8
20260901191404 64 256 2.0 3.0 0.00 0.00 0.00 76 1011.9
20260901190904 64 215 1.0 3.0 0.00 0.00 0.00 77 1011.9
20260901185403 63 217 1.0 3.0 0.00 0.00 0.00 80 1012.1
20260901184903 63 138 1.0 3.0 0.00 0.00 0.00 80 1012.1
20260901184403 63 267 0.0 2.0 0.00 0.00 0.00 83 1012.1
20260901183403 62 158 0.0 2.0 0.00 0.00 0.00 85 1012.2
20260901182903 61 285 1.0 3.0 0.00 0.00 0.00 84 1012.2
20260901181903 61 264 1.0 3.0 0.00 0.00 0.00 86 1012.2
20260901181404 61 146 1.0 3.0 0.00 0.00 0.00 85 1012.4
20260901180903 60 169 0.0 5.0 0.00 0.00 0.00 87 1012.4
20260901180403 60 171 2.0 5.0 0.00 0.00 0.00 87 1012.4
20260901175904 60 306 1.0 5.0 0.00 0.00 0.00 87 1012.4
20260901175403 59 242 2.0 5.0 0.00 0.00 0.00 87 1012.4
20260901174903 59 305 0.0 3.0 0.00 0.00 0.00 89 1012.3
20260901174403 59 254 0.0 3.0 0.00 0.00 0.00 88 1012.3
20260901173903 59 128 0.0 2.0 0.00 0.00 0.00 89 1012.3
20260901173403 59 106 1.0 3.0 0.00 0.00 0.00 89 1012.3
20260901172903 59 127 0.0 3.0 0.00 0.00 0.00 89 1012.3
20260901172403 59 218 0.0 3.0 0.00 0.00 0.00 89 1012.2
20260901171903 59 130 0.0 2.0 0.00 0.00 0.00 89 1012.2
20260901170904 59 92 0.0 2.0 0.00 0.00 0.00 89 1012.1
20260901170405 59 127 0.0 2.0 0.00 0.00 0.00 89 1012.1
20260901165903 59 25 0.0 2.0 0.00 0.00 0.00 89 1012.0
20260901165404 58 123 0.0 3.0 0.00 0.00 0.00 89 1012.0
20260901164903 58 99 0.0 3.0 0.00 0.00 0.00 88 1012.0
20260901164404 59 97 2.0 3.0 0.00 0.00 0.00 88 1012.0
20260901163903 59 190 0.0 3.0 0.00 0.00 0.00 88 1012.0
20260901163404 59 146 1.0 3.0 0.00 0.00 0.00 87 1012.0
20260901162903 59 276 1.0 3.0 0.00 0.00 0.00 87 1012.0
20260901162403 59 126 0.0 0.0 0.00 0.00 0.00 86 1012.0
20260901161903 59 90 0.0 0.0 0.00 0.00 0.00 86 1011.9
20260901161404 59 122 0.0 0.0 0.00 0.00 0.00 85 1011.9
20260901160903 60 144 0.0 1.0 0.00 0.00 0.00 84 1011.9
20260901160403 60 86 0.0 1.0 0.00 0.00 0.00 84 1011.9
20260901155903 60 146 0.0 0.0 0.00 0.00 0.00 83 1011.9
20260901155404 60 118 0.0 2.0 0.00 0.00 0.00 82 1012.0
20260901154904 60 94 0.0 3.0 0.00 0.00 0.00 82 1012.0
20260901154403 60 152 0.0 5.0 0.00 0.00 0.00 82 1011.9
20260901153903 60 140 2.0 5.0 0.00 0.00 0.00 81 1011.9
20260901153404 60 156 0.0 2.0 0.00 0.00 0.00 81 1011.9
20260901152904 60 122 0.0 2.0 0.00 0.00 0.00 81 1011.9
20260901152403 60 114 0.0 3.0 0.00 0.00 0.00 81 1011.9
20260901151903 60 137 0.0 3.0 0.00 0.00 0.00 81 1011.7
20260901151403 60 146 1.0 2.0 0.00 0.00 0.00 81 1011.7
20260901150903 60 123 0.0 2.0 0.00 0.00 0.00 81 1011.7
20260901150403 60 78 0.0 2.0 0.00 0.00 0.00 81 1011.7
20260901145404 59 71 1.0 2.0 0.00 0.00 0.00 81 1011.6
20260901144903 59 130 0.0 3.0 0.00 0.00 0.00 81 1011.6
20260901144403 59 128 0.0 3.0 0.00 0.00 0.00 81 1011.6
20260901143904 59 80 1.0 3.0 0.00 0.00 0.00 81 1011.6
20260901143403 59 120 0.0 2.0 0.00 0.00 0.00 82 1011.7
20260901142404 59 102 0.0 2.0 0.00 0.00 0.00 82 1011.6
20260901141903 59 88 0.0 2.0 0.00 0.00 0.00 82 1011.6
20260901141403 59 88 1.0 2.0 0.00 0.00 0.00 82 1011.6
20260901135903 59 97 0.0 2.0 0.00 0.00 0.00 82 1011.6
20260901135403 59 128 0.0 2.0 0.00 0.00 0.00 82 1011.5
20260901134904 59 150 0.0 2.0 0.00 0.00 0.00 82 1011.5
20260901134403 59 129 0.0 2.0 0.00 0.00 0.00 82 1011.5
20260901133903 59 112 0.0 2.0 0.00 0.00 0.00 82 1011.5
20260901133404 59 67 0.0 0.0 0.00 0.00 0.00 83 1011.5
20260901132404 59 78 0.0 2.0 0.00 0.00 0.00 82 1011.5
20260901131904 59 123 0.0 2.0 0.00 0.00 0.00 82 1011.5
20260901130404 59 77 0.0 0.0 0.00 0.00 0.00 82 1011.4
20260901125903 59 77 0.0 3.0 0.00 0.00 0.00 82 1011.4
20260901125403 59 77 0.0 3.0 0.00 0.00 0.00 82 1011.4
20260901124903 59 4 0.0 1.0 0.00 0.00 0.00 82 1011.4
20260901123904 59 205 1.0 7.0 0.00 0.00 0.00 82 1011.4
20260901123403 59 102 1.0 7.0 0.00 0.00 0.00 82 1011.4
20260901122903 59 153 0.0 5.0 0.00 0.00 0.00 82 1011.3
20260901121903 59 111 0.0 3.0 0.00 0.00 0.00 82 1011.4
20260901121403 59 90 0.0 3.0 0.00 0.00 0.00 82 1011.5
20260901120903 59 97 1.0 3.0 0.00 0.00 0.00 83 1011.4
20260901120403 59 142 0.0 2.0 0.00 0.00 0.00 83 1011.4
20260901115403 58 114 0.0 3.0 0.00 0.00 0.00 83 1011.3
20260901114904 58 41 0.0 1.0 0.00 0.00 0.00 84 1011.3
20260901113903 58 143 0.0 2.0 0.00 0.00 0.00 83 1011.2
20260901112903 58 253 0.0 5.0 0.00 0.00 0.00 82 1011.1
20260901112404 59 28 1.0 8.0 0.00 0.00 0.00 82 1011.1
20260901111903 59 123 1.0 8.0 0.00 0.00 0.00 82 1011.1
20260901111403 59 89 1.0 6.0 0.00 0.00 0.00 82 1011.0
20260901110904 59 123 2.0 6.0 0.00 0.00 0.00 82 1011.0
20260901105403 59 68 2.0 5.0 0.00 0.00 0.00 82 1011.0
20260901104903 59 89 0.0 5.0 0.00 0.00 0.00 83 1011.1
20260901104404 59 64 1.0 5.0 0.00 0.00 0.00 83 1011.1
20260901103903 59 86 1.0 5.0 0.00 0.00 0.00 83 1011.0
20260901103403 58 105 0.0 5.0 0.00 0.00 0.00 83 1011.0
20260901102904 58 69 0.0 3.0 0.00 0.00 0.00 83 1011.0
20260901102404 58 64 1.0 3.0 0.00 0.00 0.00 82 1011.0
20260901101903 59 107 1.0 3.0 0.00 0.00 0.00 82 1011.0
20260901100903 58 77 1.0 3.0 0.00 0.00 0.00 83 1010.9
20260901100403 58 109 0.0 3.0 0.00 0.00 0.00 83 1010.8
20260901095904 58 70 0.0 2.0 0.00 0.00 0.00 83 1010.7
20260901095403 58 88 0.0 2.0 0.00 0.00 0.00 83 1010.7
20260901094903 58 73 0.0 2.0 0.00 0.00 0.00 83 1010.7
20260901094404 58 93 1.0 2.0 0.00 0.00 0.00 84 1010.6
20260901093903 58 82 0.0 2.0 0.00 0.00 0.00 85 1010.7
20260901092903 57 71 0.0 2.0 0.00 0.00 0.00 86 1010.5
20260901092403 57 77 0.0 2.0 0.00 0.00 0.00 87 1010.5
20260901091904 56 102 0.0 2.0 0.00 0.00 0.00 87 1010.3
20260901091403 56 67 0.0 0.0 0.00 0.00 0.00 87 1010.3
20260901090903 56 67 0.0 0.0 0.00 0.00 0.00 87 1010.3
20260901090404 56 67 0.0 0.0 0.00 0.00 0.00 87 1010.2
20260901085403 56 55 0.0 0.0 0.00 0.00 0.00 88 1010.1
20260901084903 56 55 0.0 0.0 0.00 0.00 0.00 87 1010.1
20260901084403 55 55 0.0 0.0 0.00 0.00 0.00 88 1010.2
20260901083903 55 69 0.0 0.0 0.00 0.00 0.00 88 1010.2
20260901083403 55 86 0.0 0.0 0.00 0.00 0.00 88 1010.1
20260901082903 55 86 0.0 0.0 0.00 0.00 0.00 88 1010.2
20260901082403 55 86 0.0 0.0 0.00 0.00 0.00 87 1010.1
20260901081904 56 86 0.0 0.0 0.00 0.00 0.00 86 1010.1
20260901080903 56 86 0.0 0.0 0.00 0.00 0.00 86 1010.0
20260901080403 56 86 0.0 0.0 0.00 0.00 0.00 86 1010.0
20260901075903 56 86 0.0 0.0 0.00 0.00 0.00 86 1010.0
20260901075403 57 86 0.0 0.0 0.00 0.00 0.00 85 1009.9
20260901074903 57 86 0.0 0.0 0.00 0.00 0.00 85 1010.0
20260901074403 57 86 0.0 0.0 0.00 0.00 0.00 86 1009.9
20260901073903 57 86 0.0 1.0 0.00 0.00 0.00 85 1009.8
20260901073403 57 86 0.0 1.0 0.00 0.00 0.00 84 1009.7
20260901072904 57 109 0.0 0.0 0.00 0.00 0.00 85 1009.7
20260901072403 57 117 0.0 1.0 0.00 0.00 0.00 86 1009.6
20260901071904 57 55 0.0 1.0 0.00 0.00 0.00 84 1009.5
20260901071403 58 55 0.0 0.0 0.00 0.00 0.00 85 1009.4
20260901070903 58 55 0.0 0.0 0.00 0.00 0.00 85 1009.4
20260901070403 58 55 0.0 0.0 0.00 0.00 0.00 84 1009.3
20260901065903 58 55 0.0 0.0 0.00 0.00 0.00 83 1009.2
20260901065403 58 55 0.0 0.0 0.00 0.00 0.00 83 1009.1
20260901064903 58 50 0.0 0.0 0.00 0.00 0.00 83 1009.0
20260901064403 58 36 0.0 0.0 0.00 0.00 0.00 83 1008.8
20260901063903 59 36 0.0 1.0 0.00 0.00 0.00 82 1008.8
20260901063403 59 37 0.0 1.0 0.00 0.00 0.00 82 1008.8
20260901062903 59 64 0.0 0.0 0.00 0.00 0.00 81 1008.7
20260901062403 60 65 0.0 0.0 0.00 0.00 0.00 81 1008.6
20260901061904 60 65 0.0 0.0 0.00 0.00 0.00 81 1008.6
20260901061403 60 65 0.0 0.0 0.00 0.00 0.00 80 1008.6
20260901060904 60 80 0.0 0.0 0.00 0.00 0.00 79 1008.5
20260901060404 61 86 0.0 0.0 0.00 0.00 0.00 79 1008.4
20260901055404 61 87 0.0 0.0 0.00 0.00 0.00 79 1008.2
20260901054904 61 88 0.0 0.0 0.00 0.00 0.00 78 1008.3
20260901054403 61 87 0.0 0.0 0.00 0.00 0.00 78 1008.3
20260901053403 62 86 0.0 0.0 0.00 0.00 0.00 77 1008.3
20260901052903 62 88 0.0 0.0 0.00 0.00 0.00 77 1008.2
20260901052403 62 88 0.0 0.0 0.00 0.00 0.00 76 1008.2
20260901051903 63 88 0.0 0.0 0.00 0.00 0.00 76 1008.1
20260901051403 63 88 0.0 0.0 0.00 0.00 0.00 76 1008.0
20260901050903 63 88 0.0 0.0 0.00 0.00 0.00 76 1007.8
20260901050403 63 89 0.0 0.0 0.00 0.00 0.00 75 1007.8
20260901045903 63 94 0.0 0.0 0.00 0.00 0.00 75 1007.8
20260901044903 64 89 0.0 0.0 0.00 0.00 0.00 74 1007.9
20260901044404 64 89 0.0 0.0 0.00 0.00 0.00 73 1007.9
20260901043904 64 88 0.0 0.0 0.00 0.00 0.00 72 1007.9
20260901043404 65 88 0.0 0.0 0.00 0.00 0.00 72 1007.9
20260901042903 65 88 0.0 0.0 0.00 0.00 0.00 71 1007.9
20260901042403 65 88 0.0 0.0 0.00 0.00 0.00 71 1007.8
20260901041903 66 89 0.0 0.0 0.00 0.00 0.00 70 1007.8
20260901041403 66 82 0.0 0.0 0.00 0.00 0.00 69 1007.6
20260901040903 66 112 0.0 0.0 0.00 0.00 0.00 69 1007.7
20260901040404 67 124 0.0 0.0 0.00 0.00 0.00 68 1007.5
20260901035904 67 32 0.0 0.0 0.00 0.00 0.00 68 1007.4
20260901035404 67 32 0.0 0.0 0.00 0.00 0.00 68 1007.3
20260901034903 68 69 0.0 0.0 0.00 0.00 0.00 67 1007.3
20260901034404 68 60 0.0 0.0 0.00 0.00 0.00 67 1007.2
20260901033403 69 92 0.0 0.0 0.00 0.00 0.00 63 1007.0
20260901032904 70 91 0.0 0.0 0.00 0.00 0.00 63 1007.0
20260901031904 71 120 0.0 0.0 0.00 0.00 0.00 62 1006.9
20260901031403 72 119 0.0 0.0 0.00 0.00 0.00 62 1006.8
20260901030903 73 119 0.0 0.0 0.00 0.00 0.00 61 1006.8
20260901030403 74 119 0.0 0.0 0.00 0.00 0.00 59 1006.7
20260901025903 74 119 0.0 0.0 0.00 0.00 0.00 56 1006.7
20260901025403 75 119 0.0 0.0 0.00 0.00 0.00 56 1006.7
20260901024403 76 119 0.0 0.0 0.00 0.00 0.00 55 1006.6
20260901023903 77 119 0.0 0.0 0.00 0.00 0.00 55 1006.6
20260901023403 78 119 0.0 0.0 0.00 0.00 0.00 55 1006.5
20260901022404 79 120 0.0 0.0 0.00 0.00 0.00 52 1006.5
20260901021404 80 120 0.0 0.0 0.00 0.00 0.00 51 1006.5
20260901020904 81 119 0.0 0.0 0.00 0.00 0.00 49 1006.4
20260901020403 81 118 0.0 0.0 0.00 0.00 0.00 45 1006.5
20260901015903 82 109 0.0 0.0 0.00 0.00 0.00 45 1006.5
20260901015404 83 39 0.0 0.0 0.00 0.00 0.00 45 1006.4
20260901014904 83 112 0.0 0.0 0.00 0.00 0.00 46 1006.4
20260901014404 83 110 0.0 0.0 0.00 0.00 0.00 45 1006.4
20260901013903 84 98 0.0 0.0 0.00 0.00 0.00 40 1006.4
20260901013403 84 98 0.0 2.0 0.00 0.00 0.00 40 1006.4
20260901012904 84 96 0.0 2.0 0.00 0.00 0.00 37 1006.4
20260901012403 85 96 0.0 0.0 0.00 0.00 0.00 37 1006.4
20260901011903 85 117 0.0 0.0 0.00 0.00 0.00 38 1006.4
20260901011403 85 74 0.0 1.0 0.00 0.00 0.00 36 1006.5
20260901010903 85 173 0.0 2.0 0.00 0.00 0.00 36 1006.5
20260901010403 85 351 0.0 2.0 0.00 0.00 0.00 39 1006.5
20260901005904 85 240 0.0 3.0 0.00 0.00 0.00 35 1006.4
20260901005403 85 318 0.0 6.0 0.00 0.00 0.00 36 1006.5
20260901004904 85 289 1.0 6.0 0.00 0.00 0.00 36 1006.6
20260901004403 85 206 0.0 2.0 0.00 0.00 0.00 36 1006.5
20260901003903 85 212 0.0 2.0 0.00 0.00 0.00 36 1006.5
20260901003404 85 271 0.0 5.0 0.00 0.00 0.00 37 1006.6
20260901002904 86 191 1.0 5.0 0.00 0.00 0.00 36 1006.6
20260901002403 86 239 1.0 3.0 0.00 0.00 0.00 35 1006.6
20260901001903 85 262 1.0 5.0 0.00 0.00 0.00 37 1006.6
20260901001404 85 253 1.0 5.0 0.00 0.00 0.00 37 1006.6
20260901000903 85 186 0.0 5.0 0.00 0.00 0.00 37 1006.6
20260901000405 86 232 0.0 5.0 0.00 0.00 0.00 36 1006.6